This is the latest recevied weather packets stored in our database for station/object KQ4DLB-13. If no packets are shown the sender has not sent any weather packets the latest 10 day(s).
| Time | Temp. | Humidity | Pressure | Rain* | Wind** | Luminosity | Snow |
|---|---|---|---|---|---|---|---|
| 1777070102 | 20.56° C | 87% | 985.3 hPa | 0 mm | - | - | - |
| 1777069803 | 20.56° C | 87% | 985.1 hPa | 0 mm | - | - | - |
| 1777069502 | 20.56° C | 88% | 984.9 hPa | 0 mm | - | - | - |
| 1777069202 | 21.11° C | 87% | 984.7 hPa | 0 mm | - | 128 W/m² | - |
| 1777068902 | 20.56° C | 87% | 984.7 hPa | 0 mm | - | 168 W/m² | - |
| 1777068602 | 20.56° C | 87% | 984.7 hPa | 0 mm | - | 167 W/m² | - |
| 1777068302 | 20.56° C | 86% | 984.6 hPa | 0 mm | - | 125 W/m² | - |
| 1777068002 | 20.56° C | 86% | 984.7 hPa | 0 mm | - | - | - |
| 1777067703 | 20.56° C | 85% | 984.7 hPa | 0 mm | - | - | - |
| 1777067402 | 20.56° C | 85% | 984.7 hPa | 0 mm | - | 144 W/m² | - |
| 1777067102 | 20.56° C | 87% | 984.8 hPa | 0 mm | - | 177 W/m² | - |
| 1777066802 | 20.56° C | 86% | 984.8 hPa | 0 mm | - | 188 W/m² | - |
| 1777066502 | 20.56° C | 87% | 984.8 hPa | 0 mm | - | 197 W/m² | - |
| 1777066202 | 20° C | 87% | 984.8 hPa | 0 mm | - | 193 W/m² | - |
| 1777065903 | 20° C | 86% | 984.7 hPa | 0 mm | - | 170 W/m² | - |
| 1777065603 | 20° C | 87% | 984.8 hPa | 0 mm | - | 117 W/m² | - |
| 1777065302 | 20° C | 86% | 985 hPa | 0 mm | - | 100 W/m² | - |
| 1777065002 | 20° C | 87% | 985 hPa | 0 mm | - | 118 W/m² | - |
| 1777064702 | 20° C | 88% | 985 hPa | 0 mm | - | 133 W/m² | - |
| 1777064402 | 20° C | 87% | 985 hPa | 0 mm | - | 143 W/m² | - |
| 1777064102 | 20° C | 87% | 985 hPa | 0 mm | - | 127 W/m² | - |
| 1777063802 | 20° C | 86% | 984.9 hPa | 0 mm | - | 103 W/m² | - |
| 1777063502 | 20° C | 85% | 985 hPa | 0 mm | - | - | - |
| 1777063202 | 20.56° C | 84% | 985.1 hPa | 0 mm | - | - | - |
| 1777062902 | 21.11° C | 81% | 985.1 hPa | 0 mm | - | - | - |
* Rain latest hour (hover to see other rain measurements)
** Current wind speed in m/s (hover to see current wind gust speed)